User: anonymous   Login
Location: Poughquag
(41.6090°N, 73.6820°W)
Time: 08:46:52
(UTC-04:00)
Language:

A-11 Canister half - Orbit

View from above orbital plane
View from above orbital plane
View from above satellite
View from above satellite

Ground track
Ground track

The orbit data is extracted from the following two-line orbital elements,

1    51U 60009C   19286.33955748 -.00000154 +00000-0 -66569-3 0  9998
2    51 047.2152 035.0155 0108121 146.0929 214.6830 12.18276741633849
Epoch (UTC): 13 October 2019 08:08:57
Eccentricity: 0.0108121
inclination: 47.2152°
perigee height: 1514 km
apogee height: 1686 km
right ascension of ascending node: 35.0155°
argument of perigee: 146.0929°
revolutions per day: 12.18276741
mean anomaly at epoch: 214.6830°
orbit number at epoch: 63384

The dashed part of the orbit path shows where the satellite is in the earth's shadow,  

DLR